PEGASUS DEB, 39932

Orbit data source: Space-Track

PEGASUS DEB, 39932 is space debris in LEO originally from a launch on Thu, 19 May 1994 UTC launched from the Air Force Western Test Range (AFWTR). Debris objects in space refer to the collection of defunct objects orbiting the Earth. Examples of debris include non-operational satellites, rocket bodies, and fragments generated from explosions, collisions, or faulty payload assembly.

Loading next visibility...
Identifier
39932, 1994-029AGF
Orbit
LEO
Country
Flag of USUS
Related business
Manufacturer
Unknown
Mission
Spacecraft
Bus & Motor
Unknown
Mass
Unknown
Launch date (UTC)
1994-05-19 (32 years ago)
Launch vehicle
Unknown
Launch site
Air Force Western Test Range (AFWTR)
Object type
Payload
Rocket body
Debris
Shape & HBR
Unknown shape, 0.1 m
Radar Cross Section
Small (<0.1 m²)

Expand to show TLE details & history
Last TLE update: 1 week ago

TLE from 1 week ago
0 PEGASUS DEB
1 39932U 94029AGF 26056.44527159  .00002184  00000-0  51483-3 0  9995
2 39932  81.8186 316.6615 0298302  83.3795 280.1245 14.30043747608477
Epoch: 2026-02-25T10:41Z
TLE epoch observation values (Epoch: 2026-02-25T10:41:11.465Z)
Latitude
-0.00006°
Longitude
1.05338°
Altitude
763.158 km
Speed
7.489 km/s
True Right ascension
21h 06m 38s
True Declination
0° 00' 00"
Sunlit
Object was in daylight at epoch
Visualization orbit readout
Latitude
Unknown
Longitude
Unknown
Altitude
Unknown
Speed
Unknown
Apparent Right ascension
Unknown
Apparent Declination
Unknown
Sunlit
N/A
Visualization observer readout
Local Sidereal Time
07:57:40
Azimuth
Unknown
Elevation
Unknown
Doppler factor
Unknown
Orbital elements
Apogee altitude
1,002.489 km
Perigee altitude
574.913 km
Semi-major axis
7,166.838 km
Eccentricity
0.02983
Inclination
81.8186°
RAAN
316.6615°
Arg. of periapsis
83.3795°
True anomaly
276.73922°
Mean anomaly
280.1245°
Eccentric anomaly
278.43384°
Mean motion
3.57727 °/min
Orbital period
100.64 mins
BSTAR
0.00051483
Loading maneuver chart data...
Computing Atmospheric mass density...
Loading historical data...
Loading historical data...
Loading historical data...
Loading historical data...
Loading historical data...
Loading historical data...
Loading historical data...

Documentation

Showing up to 5 results
|